Theta_e
317 317 318 317 318 319 318 320 321 320 319 316 321 316 318 315 311 301 295 304 309 316 315 307 317 316 316 310 311 312 296 289 289 289 288 292 287 290 290 285 285 286 285 287 289
316 317 317 317 318 318 318 318 318 317 317 315 316 314 317 309 303 298 306 312 313 313 306 305 309 313 308 307 307 302 292 289 294 291 287 289 289 289 287 285 285 285 287 288 288
315 316 316 316 316 317 318 318 318 317 317 314 314 312 312 306 299 295 309 309 311 309 305 305 311 309 304 302 301 295 289 291 291 291 290 286 284 288 287 282 284 283 285 286 286
314 315 315 315 315 315 316 317 317 317 316 315 313 311 309 303 288 295 307 306 308 306 313 311 309 303 294 292 296 290 291 291 293 293 290 286 287 283 284 284 287 286 286 286 285
312 313 313 314 316 316 314 315 316 315 315 314 312 309 301 291 289 297 302 300 300 303 301 304 304 301 293 292 292 289 290 290 289 288 287 287 283 283 283 287 287 286 286 285 285
311 312 313 314 315 314 313 314 313 314 314 312 311 308 296 285 295 296 294 297 297 300 299 303 301 303 298 294 291 290 289 289 288 288 288 285 284 285 285 287 285 285 284 284 285
310 311 312 312 314 312 313 312 311 312 312 309 304 297 292 288 296 296 295 295 296 296 297 296 300 303 298 291 293 292 287 287 287 291 290 292 282 282 285 285 284 284 284 285 285
308 310 311 312 311 313 314 312 310 311 310 306 301 297 289 295 298 294 294 295 296 297 296 296 302 297 299 299 292 288 289 284 285 290 289 289 277 283 286 284 283 283 284 285 285
307 308 309 310 311 311 312 311 306 306 304 302 297 295 288 298 291 293 292 290 293 296 296 295 293 290 291 289 287 288 283 283 283 288 287 286 279 282 284 283 282 283 283 284 285
306 307 308 309 309 310 310 310 304 302 297 294 294 292 291 287 290 290 292 291 291 293 294 291 290 286 285 287 282 282 282 281 281 282 285 282 279 281 283 282 281 282 283 283 284
306 306 306 308 307 305 303 299 296 295 291 286 286 286 287 290 292 290 290 289 292 289 285 285 282 278 279 281 282 285 283 281 281 284 281 279 279 280 281 282 281 282 282 283 283
305 305 305 306 305 302 299 292 291 294 285 288 287 287 288 288 286 288 291 286 286 282 283 283 277 279 281 283 283 284 282 281 282 282 282 280 278 280 281 281 281 281 282 282 284
305 305 305 306 302 300 295 293 297 294 288 285 286 285 286 288 283 284 287 286 283 280 281 278 277 280 280 280 280 279 279 279 280 282 283 282 279 279 281 281 282 282 283 283 283
304 304 307 307 301 295 294 296 299 295 288 283 285 286 287 286 282 285 285 284 282 278 279 278 279 278 279 277 279 276 279 283 282 281 279 282 278 280 281 280 281 282 283 283 284
301 304 303 302 296 293 295 297 298 297 284 283 284 290 286 284 282 284 285 286 279 278 280 275 277 277 277 276 279 277 281 282 282 280 279 276 277 280 281 279 281 282 283 283 284
302 300 298 298 297 292 295 296 295 289 281 281 283 281 283 282 282 283 283 286 283 281 280 277 279 278 277 278 280 282 281 281 281 280 276 273 275 278 280 282 283 283 283 284 284
301 299 295 293 295 294 296 294 287 285 280 281 280 280 279 278 280 279 277 277 278 279 276 277 276 278 278 277 280 280 280 276 275 276 276 274 273 280 282 283 284 284 284 284 285
300 296 294 292 294 295 295 294 285 278 278 280 280 279 278 277 277 277 277 276 276 276 276 276 274 276 278 276 275 275 275 276 272 274 274 271 272 279 281 284 284 285 285 284 284
296 293 294 294 294 294 292 286 285 280 281 279 279 278 277 277 277 277 276 276 275 276 279 275 273 277 277 278 277 274 275 274 267 257 270 274 275 277 280 281 281 281 282 283 284
293 292 291 292 293 294 290 288 282 281 281 280 280 278 278 276 276 277 275 276 276 277 277 275 274 275 276 278 278 276 276 273 274 271 271 274 271 278 277 279 281 280 281 283 284
293 290 289 292 292 292 286 285 280 281 281 280 279 276 277 276 276 275 277 275 277 276 277 275 276 273 275 274 273 275 273 270 273 270 272 271 277 281 280 282 282 282 283 284 284
290 290 289 291 288 277 283 281 281 278 280 280 280 278 278 276 275 275 276 276 279 278 276 275 276 274 272 274 275 274 272 273 275 269 268 269 274 279 280 282 283 284 284 285 285
289 287 290 289 284 282 277 277 279 277 278 279 278 279 277 276 276 274 275 277 278 277 276 276 274 274 273 272 274 272 273 271 269 271 269 271 276 277 278 279 280 282 284 283 283
288 286 287 287 284 282 278 278 277 279 279 279 277 278 276 273 273 271 274 276 278 277 280 278 272 276 276 274 274 271 271 271 272 271 271 271 276 277 277 278 280 281 282 283 282
288 286 286 282 283 282 281 278 276 275 278 279 276 277 277 271 272 271 274 275 276 280 276 276 273 269 268 269 269 271 272 271 268 273 273 275 272 278 280 279 280 281 281 281 281
283 284 281 278 279 280 282 276 277 276 277 276 276 278 276 274 279 272 274 275 275 277 275 273 270 267 267 267 268 268 271 273 272 273 272 274 273 280 281 282 280 280 280 280 281
284 285 289 281 279 281 280 279 278 279 278 279 279 277 275 276 277 278 278 279 278 276 273 272 267 269 271 264 264 268 270 271 273 274 274 270 276 279 278 278 280 281 281 280 281
Wind_Speed
11 11 13 14 13 13 14 13 11 9 7 6 9 10 7 4 4 25 24 18 18 23 17 6 10 6 7 6 7 2 4 5 6 7 10 9 13 16 17 23 25 17 17 11 12
8 11 12 12 13 14 13 14 13 11 9 8 7 7 3 3 9 23 22 31 28 22 6 9 14 17 7 5 6 7 5 5 12 13 15 17 13 12 11 18 20 20 18 14 15
9 9 12 11 13 12 12 12 12 12 11 9 6 7 2 1 8 12 31 33 29 19 2 3 8 15 18 14 8 9 6 19 22 23 21 18 25 9 4 14 14 16 15 15 17
8 8 10 10 12 12 14 13 12 13 12 10 5 6 12 2 7 12 30 30 22 12 15 14 9 8 12 16 11 11 19 11 14 16 11 16 11 21 17 11 12 14 12 14 18
7 8 9 9 11 12 14 14 11 12 16 13 11 5 7 14 8 18 26 21 10 10 13 10 22 19 16 12 22 17 16 17 20 21 20 22 21 15 17 11 11 12 15 17 15
7 7 7 8 10 12 11 11 12 9 10 11 10 5 12 19 11 18 18 10 18 14 14 14 15 20 17 14 13 12 17 14 15 21 15 19 13 5 10 6 8 11 11 13 17
7 7 6 7 8 11 14 15 9 10 9 9 5 4 27 11 7 16 13 8 11 10 13 5 1 13 13 20 17 16 19 18 13 1 5 3 22 13 4 6 9 10 10 11 14
7 7 6 7 7 7 11 12 6 12 13 7 7 4 11 2 7 21 19 5 13 11 8 10 13 16 9 18 8 3 4 5 13 3 6 3 6 6 3 8 11 12 12 14 16
7 7 6 7 7 7 7 8 11 3 13 11 5 4 6 8 11 14 10 8 10 5 16 7 7 9 5 5 6 8 7 9 7 10 4 4 9 2 5 7 10 10 11 11 12
8 6 5 5 7 7 4 2 17 9 10 0 5 0 8 9 8 10 7 8 8 4 7 14 8 9 12 6 4 5 7 10 10 12 18 18 14 7 6 8 8 8 8 10 11
9 5 4 6 6 8 1 1 1 8 16 7 5 5 5 12 6 15 9 6 6 12 8 12 14 13 11 9 7 12 14 14 7 2 11 13 12 8 5 6 6 6 7 9 10
8 4 3 1 6 6 4 4 3 7 11 7 3 3 2 5 7 24 16 9 11 8 2 8 14 9 3 8 13 13 15 11 9 7 7 10 9 6 5 4 3 3 4 5 7
9 6 2 3 2 5 6 5 1 2 6 5 4 4 5 7 7 15 11 4 12 19 20 14 5 6 2 9 9 11 7 4 7 8 9 7 7 9 6 5 3 2 1 2 5
7 4 4 2 3 1 4 4 2 2 4 10 7 6 4 3 6 4 6 3 6 5 5 10 5 6 7 6 6 5 3 7 10 3 3 3 3 8 10 9 7 6 6 1 3
2 9 6 3 5 2 5 4 2 2 1 5 4 4 3 6 3 12 5 8 9 6 3 5 6 8 10 5 6 5 3 4 3 4 3 2 2 6 6 12 12 10 7 4 0
5 3 1 4 4 2 2 2 1 7 3 1 3 6 2 7 5 7 6 8 1 9 16 6 2 5 4 3 4 7 4 4 2 1 2 2 3 5 7 9 11 12 10 7 5
8 11 6 2 3 4 2 1 7 4 3 2 1 4 4 6 4 8 6 7 3 4 3 2 4 1 3 2 4 2 2 1 2 2 1 2 3 4 6 6 8 14 12 9 6
5 5 7 3 2 1 1 4 3 1 5 1 2 3 3 4 4 5 3 4 4 2 4 2 3 6 6 4 2 3 1 2 3 2 2 1 5 2 1 4 5 8 8 8 7
1 2 3 4 4 3 5 3 7 7 7 10 3 2 1 1 0 1 3 2 1 2 1 4 3 1 2 5 3 3 1 2 7 1 3 0 3 5 4 8 7 9 9 11 9
1 2 1 5 4 1 5 6 4 2 8 3 6 2 6 4 3 2 3 2 3 0 1 4 5 1 1 2 8 3 7 2 1 2 4 2 5 3 10 14 12 13 14 13 10
1 1 1 2 2 3 4 5 4 1 1 5 5 6 3 6 4 3 4 1 3 4 1 4 2 3 2 1 1 2 2 5 3 3 2 4 3 3 8 9 14 14 14 12 11
2 2 2 5 4 1 4 6 4 5 1 2 3 3 6 8 5 5 7 2 5 5 4 2 3 3 2 2 1 1 1 2 2 4 2 2 8 4 4 4 7 10 9 10 10
3 2 1 4 5 3 1 1 2 6 6 7 4 1 2 7 4 3 4 1 5 5 5 7 2 2 3 3 1 5 5 4 4 1 7 4 4 2 4 6 9 10 8 8 8
4 2 0 2 3 10 7 5 5 2 6 3 5 5 5 3 3 7 5 4 4 3 5 2 2 3 3 3 4 5 6 7 3 5 6 11 11 9 9 11 11 11 11 11 12
1 5 3 6 6 5 10 11 8 8 2 4 1 8 9 6 4 5 5 5 3 7 3 2 5 2 2 2 2 4 7 14 13 8 10 4 11 18 8 9 12 11 12 13 13
8 6 1 3 4 11 11 11 15 6 12 8 7 14 10 9 10 13 12 9 7 8 6 3 3 2 2 1 2 9 14 17 19 19 19 17 24 22 23 16 14 12 10 11 12
2 2 2 7 5 7 8 12 17 13 7 3 14 9 11 5 6 8 6 9 11 12 8 7 8 5 4 3 3 8 12 21 13 10 19 14 16 7 7 6 9 7 8 11 11
Wind_Direction
41 47 46 33 29 42 45 43 30 11 354 342 13 7 359 39 5 44 37 337 329 325 320 312 52 48 48 65 29 207 87 91 120 118 127 101 90 69 74 74 64 70 66 50 16
40 50 47 40 33 37 42 41 24 9 357 359 354 7 356 34 29 34 355 343 340 341 356 26 49 59 59 28 38 36 59 36 87 88 89 65 73 76 65 41 51 49 41 35 35
42 50 54 44 42 31 25 20 7 355 9 16 11 9 85 20 47 360 345 337 335 338 335 44 79 64 55 53 17 35 67 96 93 100 90 84 58 44 71 48 34 30 24 33 36
40 53 46 43 44 36 32 22 10 355 6 18 36 48 50 25 52 331 334 330 334 345 66 68 66 65 69 59 55 105 57 55 84 87 80 67 86 66 56 61 39 28 29 34 39
42 46 47 42 49 53 42 31 25 17 4 16 41 53 52 61 19 331 330 329 352 30 46 66 76 75 79 98 64 68 88 70 84 88 84 90 71 68 49 39 59 45 33 40 41
41 44 43 39 47 44 34 28 31 17 0 339 27 36 75 63 327 343 340 345 19 34 46 56 90 92 80 82 55 108 96 90 73 76 72 76 55 68 32 55 63 64 55 46 42
39 43 31 43 51 66 46 32 9 1 3 350 10 56 59 36 343 352 1 18 12 25 63 38 159 100 96 99 135 111 86 69 21 88 147 307 40 52 69 126 96 80 76 68 58
26 41 12 9 39 34 11 17 37 21 26 338 9 46 82 25 351 15 3 27 14 41 63 50 83 86 66 121 158 160 104 90 31 22 22 228 80 70 44 68 67 64 62 59 55
27 28 7 354 3 1 9 23 22 8 15 350 13 30 52 350 3 355 21 1 322 28 44 52 63 62 93 143 122 34 89 76 83 35 77 78 127 145 84 72 65 58 57 55 52
16 20 10 4 355 353 6 357 43 41 1 68 82 116 33 335 325 340 1 2 29 345 33 26 47 65 34 11 79 101 105 66 68 46 87 97 117 126 88 80 71 62 59 58 50
359 360 355 34 15 6 26 86 320 19 32 41 344 62 348 324 286 8 354 333 16 50 48 33 61 46 20 28 80 99 97 98 101 108 68 104 117 118 109 97 88 70 59 56 48
349 337 293 289 38 41 58 72 85 136 88 31 32 47 8 328 10 6 360 61 40 60 43 83 54 9 11 65 81 95 103 97 85 88 104 138 127 145 158 126 118 97 73 47 39
337 334 235 146 120 50 72 109 255 196 74 26 33 22 344 355 48 353 6 49 61 61 62 76 15 339 66 57 71 52 82 130 123 112 85 153 164 183 177 168 172 182 259 32 9
353 345 155 157 61 165 74 173 221 263 85 1 355 35 351 343 63 358 15 31 56 90 60 63 13 50 76 65 352 75 11 116 124 181 133 280 153 210 190 197 211 205 203 141 11
26 54 73 71 132 92 127 162 199 256 55 11 346 325 25 58 332 30 343 50 71 44 249 62 22 34 61 13 333 99 136 112 69 83 193 80 249 115 197 221 214 213 212 195 65
355 354 8 52 76 98 152 160 233 45 247 43 307 348 11 29 42 316 27 46 85 67 59 81 32 21 23 355 45 127 125 98 95 115 235 144 295 170 187 224 211 207 212 212 229
56 55 54 348 124 158 179 111 40 132 17 231 8 29 71 16 40 23 36 35 25 133 65 118 34 24 3 119 91 193 184 210 196 214 35 113 256 298 198 210 225 202 205 209 231
68 61 43 44 48 220 207 65 120 11 211 111 134 83 79 357 37 23 95 91 62 338 114 147 146 4 351 18 37 56 224 325 303 282 10 84 235 123 185 221 234 217 204 213 231
46 48 65 12 336 278 80 79 203 189 149 153 114 143 119 120 184 114 40 107 54 16 6 140 130 107 51 32 302 131 107 87 107 118 259 17 250 215 221 219 207 203 210 224 232
135 97 63 330 323 277 82 221 167 148 128 172 168 196 174 196 180 198 178 176 158 189 233 166 119 171 108 207 53 358 127 149 88 305 282 216 263 247 207 219 206 216 223 231 232
131 198 54 315 242 62 173 188 156 164 107 166 167 140 178 174 193 188 154 163 213 128 110 147 294 138 227 194 147 169 157 69 96 334 283 304 254 182 198 198 203 218 227 233 234
134 205 360 275 82 349 169 163 132 159 157 136 112 107 161 164 146 184 199 267 161 162 154 123 108 130 85 111 331 293 266 279 213 177 58 341 272 184 193 185 213 232 241 244 245
151 101 352 287 155 181 320 51 162 152 174 167 153 132 139 163 141 176 172 21 151 171 170 184 163 130 181 171 166 225 183 134 101 60 200 200 254 181 216 226 235 243 239 240 249
128 150 349 53 334 140 151 193 192 266 143 149 128 113 120 127 38 159 152 179 191 178 125 123 125 212 250 78 95 188 197 190 172 184 172 229 273 229 214 233 228 231 242 253 268
145 221 227 171 218 182 171 149 147 181 243 177 141 222 164 130 119 173 162 148 194 176 106 193 212 186 244 236 273 246 215 193 206 197 212 286 234 262 275 247 255 261 269 267 267
144 150 227 117 145 147 169 205 173 162 157 210 219 185 182 158 187 184 150 186 180 166 169 170 175 167 268 11 268 274 232 231 227 239 252 260 270 272 275 270 256 253 252 254 255
136 87 148 141 156 154 193 185 200 141 220 195 198 138 189 191 88 86 81 120 140 153 156 162 144 162 241 6 306 269 235 200 205 220 219 218 229 234 239 239 249 247 248 254 257